Location: Chervonnoye
(48.6000°N, 34.4000°E)
Time: 10:22:41
(UTC+00:00)

NOAA 15 - Pass Details

Date: 03 December 2021
Orbit: 797 x 812 km, 98.7° (Epoch: 23 January)

Event Time Altitude Azimuth Distance (km) Brightness Sun altitude
Rises 17:53:05 0° 210° (SSW) 3,318 8.0 -39.5°
Reaches altitude 10° 17:56:13 10° 230° (SW) 2,390 7.4 -40.0°
Maximum altitude 17:59:41 18° 271° (W) 1,917 7.1 -40.6°
Drops below altitude 10° 18:03:10 10° 312° (NW) 2,395 7.6 -41.1°
Sets 18:06:20 0° 332° (NNW) 3,329 8.3 -41.6°
